KC5AEE Weather Reports


Display with metric or nautical units.
time (UTC)temp
F
wind
direction
speed
MPH
gust
MPH
rain 1hr
in
rain 24hr
in
rain mn
in
humidity
%
barometer
mb
20260507070218 40 360 3.0 6.0 0.00 0.00 0.00 48 1023.2
20260507064717 43 360 0.0 0.0 0.00 0.00 0.00 35 1023.0
20260507061720 43 360 1.0 2.0 0.00 0.00 0.00 41 1023.0
20260507060223 44 300 2.0 6.0 0.00 0.00 0.00 37 1022.7
20260507054720 45 360 4.0 8.0 0.00 0.02 0.00 38 1022.6
20260507051720 45 360 1.0 3.0 0.00 0.02 0.00 45 1022.6
20260507050224 45 360 1.0 4.0 0.00 0.02 0.00 44 1022.7
20260507044719 46 360 1.0 2.0 0.00 0.10 0.00 46 1022.5
20260507043224 46 360 4.0 8.0 0.00 0.10 0.00 46 1022.2
20260507041719 47 360 5.0 8.0 0.00 0.10 0.00 48 1022.0
20260507040225 47 360 3.0 6.0 0.00 0.10 0.00 49 1021.8
20260507034719 48 360 6.0 11.0 0.00 0.10 0.00 49 1021.5
20260507033217 48 360 6.0 11.0 0.00 0.10 0.00 50 1021.2
20260507031720 48 360 5.0 8.0 0.00 0.10 0.00 50 1021.2
20260507030220 48 360 5.0 10.0 0.00 0.10 0.00 50 1021.0
20260507024718 48 360 5.0 11.0 0.00 0.10 0.00 50 1020.7
20260507023221 49 360 5.0 12.0 0.00 0.10 0.00 50 1020.5
20260507021717 49 360 7.0 13.0 0.00 0.10 0.00 49 1020.3
20260507020218 50 360 5.0 11.0 0.00 0.10 0.00 49 1020.0
20260507014718 50 360 7.0 13.0 0.00 0.10 0.00 49 1019.9
20260507013223 50 360 8.0 15.0 0.00 0.10 0.00 51 1019.5
20260507011718 49 360 7.0 19.0 0.00 0.10 0.00 56 1019.3
20260507010223 48 360 11.0 22.0 0.00 0.10 0.00 59 1019.2
20260507004718 50 360 8.0 18.0 0.00 0.10 0.00 55 1019.0
20260507003221 52 360 13.0 22.0 0.00 0.10 0.00 46 1018.8
20260507001719 53 360 9.0 19.0 0.00 0.10 0.00 47 1018.4
20260507000224 55 360 7.0 13.0 0.00 0.10 0.00 44 1017.9
20260506233218 56 360 7.0 15.0 0.00 0.10 0.00 44 1017.8
20260506231718 55 360 10.0 18.0 0.00 0.10 0.00 48 1017.5
20260506230221 55 360 13.0 26.0 0.00 0.10 0.00 45 1017.3
20260506224719 58 360 14.0 25.0 0.00 0.10 0.00 33 1016.8
20260506223221 57 360 14.0 25.0 0.00 0.10 0.00 33 1016.6
20260506221715 60 360 14.0 29.0 0.00 0.10 0.00 31 1016.5
20260506214716 59 360 15.0 29.0 0.00 0.10 0.00 31 1016.4
20260506213215 60 360 14.0 26.0 0.00 0.10 0.00 31 1016.5
20260506211718 58 360 12.0 24.0 0.00 0.10 0.00 34 1016.7
20260506204717 57 360 11.0 25.0 0.00 0.10 0.00 37 1016.9
20260506203217 56 360 11.0 24.0 0.00 0.10 0.00 39 1017.0
20260506201717 56 360 11.0 19.0 0.00 0.10 0.00 40 1017.0
20260506200215 58 360 13.0 24.0 0.00 0.11 0.00 37 1017.2
20260506194721 56 360 11.0 18.0 0.00 0.11 0.00 39 1017.2
20260506193218 57 360 14.0 24.0 0.00 0.11 0.00 37 1017.3
20260506191723 57 360 11.0 26.0 0.00 0.11 0.00 39 1017.4
20260506184718 55 360 14.0 23.0 0.00 0.11 0.00 40 1017.7
20260506183218 54 360 12.0 22.0 0.00 0.11 0.00 44 1017.5
20260506181717 54 360 14.0 23.0 0.00 0.11 0.00 45 1017.8
20260506180220 53 360 12.0 23.0 0.00 0.11 0.00 45 1017.8
20260506174720 53 360 11.0 20.0 0.00 0.11 0.00 46 1017.9
20260506173217 52 360 11.0 20.0 0.00 0.11 0.00 47 1018.1
20260506171719 51 360 10.0 21.0 0.00 0.11 0.00 50 1017.9
20260506170220 49 360 11.0 21.0 0.00 0.11 0.00 52 1018.0
20260506164718 49 360 11.0 21.0 0.00 0.11 0.00 55 1018.0
20260506163218 48 360 10.0 19.0 0.00 0.11 0.00 56 1017.8
20260506161716 47 360 10.0 19.0 0.00 0.11 0.00 58 1017.9
20260506160219 47 360 9.0 15.0 0.00 0.11 0.00 60 1017.9
20260506153217 44 360 10.0 19.0 0.00 0.11 0.00 64 1017.7
20260506151717 44 360 11.0 21.0 0.00 0.11 0.00 66 1017.5
20260506144715 41 360 14.0 28.0 0.00 0.11 0.00 70 1017.8
20260506143220 41 360 13.0 24.0 0.00 0.11 0.00 72 1017.5
20260506141717 41 360 11.0 19.0 0.00 0.11 0.00 74 1017.2
20260506140220 40 360 11.0 24.0 0.00 0.11 0.00 77 1017.3
20260506134715 39 360 11.0 20.0 0.00 0.11 0.00 78 1017.1
20260506133220 39 360 12.0 23.0 0.00 0.11 0.00 79 1017.4
20260506130220 37 360 9.0 19.0 0.00 0.11 0.00 85 1017.3
20260506124718 36 360 8.0 15.0 0.00 0.11 0.00 85 1017.0
20260506123216 36 360 7.0 13.0 0.00 0.11 0.00 86 1016.3
20260506121715 35 360 5.0 12.0 0.00 0.11 0.00 87 1016.4
20260506120220 35 360 4.0 8.0 0.00 0.11 0.00 87 1016.4
20260506114717 36 360 4.0 8.0 0.00 0.11 0.00 85 1016.5
20260506113217 36 360 4.0 8.0 0.00 0.11 0.00 85 1016.6
20260506111717 36 360 4.0 8.0 0.00 0.11 0.00 85 1016.6
20260506110221 36 360 4.0 8.0 0.00 0.11 0.00 85 1016.4
20260506104715 36 360 3.0 6.0 0.00 0.11 0.00 85 1016.2
20260506103218 37 360 2.0 5.0 0.00 0.11 0.00 84 1016.2
20260506101715 37 360 2.0 4.0 0.00 0.11 0.00 84 1016.1
20260506100216 37 360 3.0 5.0 0.00 0.11 0.00 84 1016.1
20260506094717 38 360 3.0 6.0 0.00 0.11 0.00 85 1016.1
20260506093217 38 360 3.0 6.0 0.00 0.11 0.00 86 1016.1
20260506091717 38 360 3.0 5.0 0.00 0.11 0.00 86 1016.1
20260506090222 38 360 2.0 5.0 0.00 0.11 0.00 85 1015.9
20260506084719 39 360 3.0 8.0 0.00 0.11 0.00 82 1016.0
20260506081717 41 360 3.0 6.0 0.00 0.11 0.00 77 1016.3
20260506073216 41 360 2.0 4.0 0.00 0.11 0.00 81 1016.5
20260506071716 42 360 2.0 4.0 0.00 0.11 0.00 82 1016.3